THORAD AGENA D DEB, 4685

Orbit data source: Space-Track

THORAD AGENA D DEB, 4685 is space debris in SSO originally from a launch on Wed, 08 Apr 1970 UTC launched from the Air Force Western Test Range (AFWTR). Debris objects in space refer to the collection of defunct objects orbiting the Earth. Examples of debris include non-operational satellites, rocket bodies, and fragments generated from explosions, collisions, or faulty payload assembly.

Loading next visibility...
Identifier
4685, 1970-025BJ
Orbit
SSO
Country
Flag of USUS
Related business
Manufacturer
Unknown
Mission
Spacecraft
Bus & Motor
Unknown
Mass
Unknown
Launch date (UTC)
1970-04-08 (56 years ago)
Launch vehicle
Unknown
Launch site
Air Force Western Test Range (AFWTR)
Object type
Payload
Rocket body
Debris
Shape & HBR
Unknown shape, 0.2 m
Radar Cross Section
Medium (>0.1 m² and <1 m²)

Expand to show TLE details & history
Last TLE update: 9 hours ago

TLE from 9 hours ago
0 THORAD AGENA D DEB
1 04685U 70025BJ  26169.22976189  .00000229  00000-0  38576-3 0  9990
2 04685  99.9278 254.1518 0052084 285.7052  97.0427 13.56602710769656
Epoch: 2026-06-18T05:30Z
TLE epoch observation values (Epoch: 2026-06-18T05:30:51.427Z)
Latitude
22.9894°
Longitude
-99.27511°
Altitude
1,055.679 km
Speed
7.324 km/s
True Right ascension
16h 39m 39s
True Declination
22° 52' 15"
Sunlit
Object was in full shadow at epoch
Visualization orbit readout
Latitude
Unknown
Longitude
Unknown
Altitude
Unknown
Speed
Unknown
Apparent Right ascension
Unknown
Apparent Declination
Unknown
Sunlit
N/A
Visualization observer readout
Local Sidereal Time
01:19:18
Azimuth
Unknown
Elevation
Unknown
Doppler factor
Unknown
Orbital elements
Apogee altitude
1,084.033 km
Perigee altitude
1,006.704 km
Semi-major axis
7,423.506 km
Eccentricity
0.00521
Inclination
99.9278°
RAAN
254.1518°
Arg. of periapsis
285.7052°
True anomaly
97.63455°
Mean anomaly
97.0427°
Eccentric anomaly
97.33867°
Mean motion
3.39336 °/min
Orbital period
106.09 mins
BSTAR
0.00038576

Documentation

Showing up to 5 results
|